Leon — D5BH4 — position and weather

sailwx.info

Track history (hours):
 
Tides and Currents Weather Stations Pressure Air Temp Water Temp Dewpoint Dewpoint Depression Visibility Wind Speed Wind Dir Waves Ship Positions

Leon

Last reported at 2014-Oct-31 23:10 UTC. Time now 2014-Nov-01 04:07 UTC.
Position N 57°30' E 008°21'.

Length 95 m; draft 5.6 m.

Type: Ship (hazmat cat C). MMSI: 636015519.

Date/timePositionNaut miles runAvg speedWind from/ knotsBaromVisibWave heightAir tempDewpointWater temp
2014-Oct-31 23:10N 57°30' E 008°21'65 9.4
2014-Oct-31 16:14N 57°52' E 010°15'710.2
2014-Oct-31 15:33N 57°52' E 010°28'1010.1
2014-Oct-31 14:33N 57°49' E 010°46'1110.9
2014-Oct-31 13:32N 57°41' E 011°02'1110.7
2014-Oct-31 12:33N 57°35' E 011°17'1010.3
2014-Oct-31 11:33N 57°27' E 011°30'1111.0
2014-Oct-31 10:33N 57°16' E 011°36'1411.3
2014-Oct-31 09:18N 57°03' E 011°43'911.3
2014-Oct-31 08:33N 56°55' E 011°48'1010.2
2014-Oct-31 07:32N 56°45' E 011°52'58 1.6
2014-Oct-29 18:24N 57°29' E 010°43'910.6
2014-Oct-29 17:33N 57°38' E 010°44'1111.0
2014-Oct-29 16:33N 57°49' E 010°46'7 7.3
2014-Oct-29 15:33N 57°54' E 010°35'  
2014-Oct-24 18:16N 58°04' E 006°02'134 8.5
2014-Oct-24 02:33N 57°52' E 010°13'9 8.9
2014-Oct-24 01:33N 57°53' E 010°30'9 9.0
2014-Oct-24 00:33N 57°49' E 010°45'10 9.5
2014-Oct-23 23:33N 57°43' E 010°59'10 9.6
2014-Oct-23 22:33N 57°36' E 011°11'1010.3
2014-Oct-23 21:33N 57°29' E 011°25'1111.4
2014-Oct-23 20:33N 57°19' E 011°33'1111.1
2014-Oct-23 19:31N 57°08' E 011°40'1111.1
2014-Oct-23 18:33N 56°58' E 011°47'1110.5
2014-Oct-23 17:33N 56°48' E 011°53'1210.9
2014-Oct-23 16:29N 56°37' E 011°58'1010.7
2014-Oct-23 15:33N 56°27' E 012°02'1010.4
2014-Oct-23 14:33N 56°17' E 012°07'1110.7
2014-Oct-23 13:33N 56°11' E 012°23'1212.3
2014-Oct-23 12:33N 56°03' E 012°40'1110.9
2014-Oct-23 11:33N 55°52' E 012°44'1110.6
2014-Oct-23 10:33N 55°42' E 012°41'1110.5
2014-Oct-23 09:33N 55°31' E 012°43'1111.1
2014-Oct-23 08:33N 55°20' E 012°41'1010.3
2014-Oct-23 07:33N 55°10' E 012°40'48 9.5
2014-Oct-23 02:29N 54°25' E 012°11'1010.6
2014-Oct-23 01:33N 54°15' E 012°05'6 5.1
2014-Oct-23 00:16N 54°09' E 012°07'0 0.0
2014-Oct-22 23:28N 54°09' E 012°07'0 0.0
2014-Oct-22 22:28N 54°09' E 012°07'0 0.0
2014-Oct-22 21:13N 54°09' E 012°07'0 0.0
2014-Oct-22 20:32N 54°09' E 012°07'0 0.0
2014-Oct-22 19:31N 54°09' E 012°07'0 0.0
2014-Oct-22 18:10N 54°09' E 012°07'0 0.0
2014-Oct-22 17:13N 54°09' E 012°07'0 0.0
2014-Oct-22 16:22N 54°09' E 012°07'0 0.0
2014-Oct-22 15:28N 54°09' E 012°07'0 0.0
2014-Oct-22 14:28N 54°09' E 012°07'0 0.0
2014-Oct-22 13:10N 54°09' E 012°07'0 0.0
2014-Oct-22 12:31N 54°09' E 012°07'0 0.0
2014-Oct-22 11:25N 54°09' E 012°07'0 0.0
2014-Oct-22 10:28N 54°09' E 012°07'0 0.0
2014-Oct-22 09:25N 54°09' E 012°07'0 0.0
2014-Oct-22 08:28N 54°09' E 012°07'0 0.0
2014-Oct-22 07:28N 54°09' E 012°07'0 0.0
2014-Oct-22 06:22N 54°09' E 012°07'0 0.0
2014-Oct-22 05:28N 54°09' E 012°07'0 0.0
2014-Oct-22 04:22N 54°09' E 012°07'0 0.0
2014-Oct-22 03:28N 54°09' E 012°07'0 0.0
2014-Oct-22 02:31N 54°09' E 012°07'0 0.0
2014-Oct-22 01:28N 54°09' E 012°07'0 0.0
2014-Oct-22 00:31N 54°09' E 012°07'0 0.0
2014-Oct-21 23:31N 54°09' E 012°07'  
Track history (hours):
 
Tides and Currents Weather Stations Pressure Air Temp Water Temp Dewpoint Dewpoint Depression Visibility Wind Speed Wind Dir Waves Ship Positions

Leon

Last reported at 2014-Oct-31 23:10 UTC. Time now 2014-Nov-01 04:07 UTC.
Position N 57°30' E 008°21'.

Length 95 m; draft 5.6 m.

Type: Ship (hazmat cat C). MMSI: 636015519.

Date/timePositionNaut miles runAvg speedWind from/ knotsBaromVisibWave heightAir tempDewpointWater temp
2014-Oct-31 23:10N 57°30' E 008°21'65 9.4
2014-Oct-31 16:14N 57°52' E 010°15'710.2
2014-Oct-31 15:33N 57°52' E 010°28'1010.1
2014-Oct-31 14:33N 57°49' E 010°46'1110.9
2014-Oct-31 13:32N 57°41' E 011°02'1110.7
2014-Oct-31 12:33N 57°35' E 011°17'1010.3
2014-Oct-31 11:33N 57°27' E 011°30'1111.0
2014-Oct-31 10:33N 57°16' E 011°36'1411.3
2014-Oct-31 09:18N 57°03' E 011°43'911.3
2014-Oct-31 08:33N 56°55' E 011°48'1010.2
2014-Oct-31 07:32N 56°45' E 011°52'58 1.6
2014-Oct-29 18:24N 57°29' E 010°43'910.6
2014-Oct-29 17:33N 57°38' E 010°44'1111.0
2014-Oct-29 16:33N 57°49' E 010°46'7 7.3
2014-Oct-29 15:33N 57°54' E 010°35'  
2014-Oct-24 18:16N 58°04' E 006°02'134 8.5
2014-Oct-24 02:33N 57°52' E 010°13'9 8.9
2014-Oct-24 01:33N 57°53' E 010°30'9 9.0
2014-Oct-24 00:33N 57°49' E 010°45'10 9.5
2014-Oct-23 23:33N 57°43' E 010°59'10 9.6
2014-Oct-23 22:33N 57°36' E 011°11'1010.3
2014-Oct-23 21:33N 57°29' E 011°25'1111.4
2014-Oct-23 20:33N 57°19' E 011°33'1111.1
2014-Oct-23 19:31N 57°08' E 011°40'1111.1
2014-Oct-23 18:33N 56°58' E 011°47'1110.5
2014-Oct-23 17:33N 56°48' E 011°53'1210.9
2014-Oct-23 16:29N 56°37' E 011°58'1010.7
2014-Oct-23 15:33N 56°27' E 012°02'1010.4
2014-Oct-23 14:33N 56°17' E 012°07'1110.7
2014-Oct-23 13:33N 56°11' E 012°23'1212.3
2014-Oct-23 12:33N 56°03' E 012°40'1110.9
2014-Oct-23 11:33N 55°52' E 012°44'1110.6
2014-Oct-23 10:33N 55°42' E 012°41'1110.5
2014-Oct-23 09:33N 55°31' E 012°43'1111.1
2014-Oct-23 08:33N 55°20' E 012°41'1010.3
2014-Oct-23 07:33N 55°10' E 012°40'48 9.5
2014-Oct-23 02:29N 54°25' E 012°11'1010.6
2014-Oct-23 01:33N 54°15' E 012°05'6 5.1
2014-Oct-23 00:16N 54°09' E 012°07'0 0.0
2014-Oct-22 23:28N 54°09' E 012°07'0 0.0
2014-Oct-22 22:28N 54°09' E 012°07'0 0.0
2014-Oct-22 21:13N 54°09' E 012°07'0 0.0
2014-Oct-22 20:32N 54°09' E 012°07'0 0.0
2014-Oct-22 19:31N 54°09' E 012°07'0 0.0
2014-Oct-22 18:10N 54°09' E 012°07'0 0.0
2014-Oct-22 17:13N 54°09' E 012°07'0 0.0
2014-Oct-22 16:22N 54°09' E 012°07'0 0.0
2014-Oct-22 15:28N 54°09' E 012°07'0 0.0
2014-Oct-22 14:28N 54°09' E 012°07'0 0.0
2014-Oct-22 13:10N 54°09' E 012°07'0 0.0
2014-Oct-22 12:31N 54°09' E 012°07'0 0.0
2014-Oct-22 11:25N 54°09' E 012°07'0 0.0
2014-Oct-22 10:28N 54°09' E 012°07'0 0.0
2014-Oct-22 09:25N 54°09' E 012°07'0 0.0
2014-Oct-22 08:28N 54°09' E 012°07'0 0.0
2014-Oct-22 07:28N 54°09' E 012°07'0 0.0
2014-Oct-22 06:22N 54°09' E 012°07'0 0.0
2014-Oct-22 05:28N 54°09' E 012°07'0 0.0
2014-Oct-22 04:22N 54°09' E 012°07'0 0.0
2014-Oct-22 03:28N 54°09' E 012°07'0 0.0
2014-Oct-22 02:31N 54°09' E 012°07'0 0.0
2014-Oct-22 01:28N 54°09' E 012°07'0 0.0
2014-Oct-22 00:31N 54°09' E 012°07'0 0.0
2014-Oct-21 23:31N 54°09' E 012°07'  

Dump ship's entire track history